Logan, UT

1:01 PM MST on November 13, 2019 (GMT -0700)
Logan-Cache

Weather History for KLGU - October, 2019

Change the Weather History Date:

Wednesday, October 23, 2019

  Actual Average Record
Temperature  
Mean Temperature 44 °F -  
Max Temperature 53 °F 60 °F 74 °F (1962)
Min Temperature 32 °F 32 °F 20 °F (1958)
Degree Days  
Heating Degree Days 21    
Moisture  
Dew Point 29 °F    
Average Humidity 58    
Maximum Humidity 79    
Minimum Humidity 31    
Precipitation  
Precipitation 0.00 in - - ()
Sea Level Pressure  
Sea Level Pressure 30.21 in    
Wind  
Wind Speed 6 mph ()    
Max Wind Speed 18 mph    
Max Gust Speed 23 mph    
Visibility 10.0 miles    
Events      
Averages and records for this station are not official NWS values.
T = Trace of Precipitation, MM = Missing Value Source: Averaged Metar Reports

Daily Weather History Graph

Daily Weather History Graph

Search for Another Location

Airport or City:

Astronomy

Oct. 23, 2019 Rise Set
Actual Time 7:48 AM MDT 6:34 PM MDT
Civil Twilight 7:20 AM MDT 7:02 PM MDT
Nautical Twilight 6:47 AM MDT 7:34 PM MDT
Astronomical Twilight 6:15 AM MDT 8:07 PM MDT
Moon 2:05 AM MDT (10/23) 4:32 PM MDT (10/23)
Length of Visible Light 11h 42m
Length of Day
10h 45m
Waning Crescent, 26% of the Moon is Illuminated
Oct 23
Waning Crescent
Oct 27
New
Nov 4
First Quarter
Nov 12
Full
Nov 19
Last Quarter

Hourly Weather History & Observations

Time (MDT) Temp. Windchill Dew Point Humidity Pressure Visibility Wind Dir Wind Speed Gust Speed Precip Events Conditions
12:51 AM 44.1 °F - 34.0 °F 68% 30.15 in 10.0 mi Calm Calm - N/A   Clear
1:51 AM 45.0 °F 41.8 °F 33.1 °F 63% 30.14 in 10.0 mi East 5.8 mph - N/A   Clear
2:51 AM 53.1 °F - 28.9 °F 40% 30.11 in 10.0 mi SSE 5.8 mph - N/A   Clear
3:51 AM 39.0 °F 34.8 °F 33.1 °F 79% 30.14 in 10.0 mi SW 5.8 mph - N/A   Mostly Cloudy
4:51 AM 41.0 °F 35.2 °F 32.0 °F 70% 30.12 in 10.0 mi SE 9.2 mph - N/A   Clear
5:51 AM 43.0 °F - 30.0 °F 60% 30.12 in 10.0 mi Calm Calm - N/A   Clear
7:51 AM 39.0 °F 33.4 °F 32.0 °F 76% 30.16 in 10.0 mi WNW 8.1 mph - N/A   Mostly Cloudy
8:51 AM 41.0 °F 35.2 °F 34.0 °F 76% 30.17 in 10.0 mi North 9.2 mph - N/A   Partly Cloudy
9:51 AM 46.9 °F - 36.0 °F 66% 30.19 in 10.0 mi Calm Calm - N/A   Mostly Cloudy
10:51 AM 50.0 °F - 33.1 °F 52% 30.19 in 10.0 mi Variable 3.5 mph - N/A   Mostly Cloudy
11:51 AM 52.0 °F - 33.1 °F 49% 30.19 in 10.0 mi NNE 11.5 mph - N/A   Scattered Clouds
12:51 PM 48.9 °F - 30.0 °F 48% 30.20 in 10.0 mi North 17.3 mph - N/A   Overcast
1:51 PM 52.0 °F - 27.0 °F 38% 30.19 in 10.0 mi North 18.4 mph - N/A   Scattered Clouds
2:51 PM 51.1 °F - 26.1 °F 38% 30.17 in 10.0 mi North 18.4 mph 23.0 mph N/A   Partly Cloudy
3:51 PM 53.1 °F - 23.0 °F 31% 30.21 in 10.0 mi NNE 13.8 mph - N/A   Clear
5:51 PM 46.9 °F - 21.9 °F 37% 30.22 in 10.0 mi North 9.2 mph - N/A   Partly Cloudy
6:51 PM 41.0 °F 34.7 °F 25.0 °F 53% 30.28 in 10.0 mi North 10.4 mph - N/A   Clear
7:51 PM 37.0 °F 30.4 °F 26.1 °F 65% 30.30 in 10.0 mi NW 9.2 mph - N/A   Clear
8:51 PM 37.0 °F - 25.0 °F 62% 30.31 in 10.0 mi Calm Calm - N/A   Clear
9:51 PM 35.1 °F - 25.0 °F 67% 30.33 in 10.0 mi Calm Calm - N/A   Clear
10:51 PM 35.1 °F 31.0 °F 25.0 °F 67% 30.34 in 10.0 mi SSE 4.6 mph - N/A   Clear
11:51 PM 32.0 °F 28.7 °F 24.1 °F 73% 30.36 in 10.0 mi ESE 3.5 mph - N/A   Clear